Location: Barcelona
(41.3830°N, 2.1830°E)
Time: 15:54:05
(UTC+02:00)

ISS - Pass Details

Date: 07 March 2021
Orbit: 418 x 422 km, 51.6° (Epoch: 16 April)

Event Time Altitude Azimuth Distance (km) Brightness Sun altitude
Exits shadow 06:28:17 - 314° (NW) 1,779 -1.0 -9.8°
Reaches altitude 10° 06:29:01 10° 319° (NW) 1,499 -1.3 -9.7°
Maximum altitude 06:32:09 35° 27° (NNE) 696 -2.4 -9.1°
Drops below altitude 10° 06:35:16 10° 95° (E) 1,495 0.7 -8.5°
Sets 06:37:28 0° 105° (ESE) 2,356 1.9 -8.1°
